Radioactive Concentration measured by Seawater Radiation Monitor near Fukushima Daiichi Nuclear Power Station
Date,Time,Cs137(Bq/L),Cs134(Bq/L),Total β(Bq/L)
2022/06/29,00:00,ND,ND,20
2022/06/29,00:10,ND,ND,20
2022/06/29,00:20,ND,ND,20
2022/06/29,00:30,ND,ND,20
2022/06/29,00:40,ND,ND,22
2022/06/29,00:50,ND,ND,22
2022/06/29,01:00,ND,ND,23
2022/06/29,01:10,ND,ND,25
2022/06/29,01:20,ND,ND,24
2022/06/29,01:30,ND,ND,26
2022/06/29,01:40,ND,ND,24
2022/06/29,01:50,ND,ND,26
2022/06/29,02:00,ND,ND,22
2022/06/29,02:10,ND,ND,23
2022/06/29,02:20,ND,ND,21
2022/06/29,02:30,ND,ND,19
2022/06/29,02:40,ND,ND,19
2022/06/29,02:50,ND,ND,16
2022/06/29,03:00,ND,ND,20
2022/06/29,03:10,ND,ND,17
2022/06/29,03:20,ND,ND,20
2022/06/29,03:30,ND,ND,18
2022/06/29,03:40,ND,ND,21
2022/06/29,03:50,ND,ND,21
2022/06/29,04:00,ND,ND,20
2022/06/29,04:10,ND,ND,21
2022/06/29,04:20,ND,ND,19
2022/06/29,04:30,0.050,ND,23
2022/06/29,04:40,0.056,ND,21
2022/06/29,04:50,0.060,ND,24
2022/06/29,05:00,0.057,ND,24
2022/06/29,05:10,0.066,ND,27
2022/06/29,05:20,ND,ND,27
2022/06/29,05:30,ND,ND,25
2022/06/29,05:40,ND,ND,25
2022/06/29,05:50,ND,ND,23
2022/06/29,06:00,ND,ND,23
2022/06/29,06:10,ND,ND,24
2022/06/29,06:20,ND,ND,22
2022/06/29,06:30,ND,ND,21
2022/06/29,06:40,ND,ND,22
2022/06/29,06:50,ND,ND,22
2022/06/29,07:00,ND,ND,24
2022/06/29,07:10,ND,ND,22
2022/06/29,07:20,ND,ND,25
2022/06/29,07:30,ND,ND,27
2022/06/29,07:40,ND,ND,27
2022/06/29,07:50,ND,ND,27
2022/06/29,08:00,0.067,ND,27
2022/06/29,08:10,0.074,ND,24
2022/06/29,08:20,0.074,ND,24
2022/06/29,08:30,ND,ND,25
2022/06/29,08:40,ND,ND,23
2022/06/29,08:50,ND,ND,25
2022/06/29,09:00,0.064,ND,23
2022/06/29,09:10,0.069,ND,24
2022/06/29,09:20,0.067,ND,25
2022/06/29,09:30,ND,ND,24
2022/06/29,09:40,ND,ND,25
2022/06/29,09:50,0.10,ND,24
2022/06/29,10:00,0.086,ND,25
2022/06/29,10:10,0.082,ND,25
2022/06/29,10:20,0.090,ND,27
2022/06/29,10:30,ND,ND,25
2022/06/29,10:40,0.10,ND,25
2022/06/29,10:50,ND,ND,26
2022/06/29,11:00,0.11,ND,28
2022/06/29,11:10,0.12,ND,28
2022/06/29,11:20,0.12,ND,26
2022/06/29,11:30,0.095,ND,27
2022/06/29,11:40,0.057,ND,26
2022/06/29,11:50,0.086,ND,22
2022/06/29,12:00,0.054,ND,19
2022/06/29,12:10,0.095,ND,19
2022/06/29,12:20,0.070,ND,20
2022/06/29,12:30,0.070,ND,21
2022/06/29,12:40,ND,ND,23
2022/06/29,12:50,0.068,ND,25
2022/06/29,13:00,ND,ND,24
2022/06/29,13:10,ND,ND,26
2022/06/29,13:20,0.070,ND,25
2022/06/29,13:30,0.068,ND,25
2022/06/29,13:40,0.073,ND,25
2022/06/29,13:50,0.073,ND,26
2022/06/29,14:00,0.073,ND,28
2022/06/29,14:10,0.067,ND,28
2022/06/29,14:20,0.061,ND,27
2022/06/29,14:30,0.070,ND,27
2022/06/29,14:40,0.078,ND,26
2022/06/29,14:50,0.069,ND,25
2022/06/29,15:00,ND,ND,26
2022/06/29,15:10,0.087,ND,23
2022/06/29,15:20,0.089,ND,26
2022/06/29,15:30,0.063,ND,26
2022/06/29,15:40,ND,ND,26
2022/06/29,15:50,ND,ND,21
2022/06/29,16:00,0.060,ND,20
2022/06/29,16:10,ND,ND,20
2022/06/29,16:20,ND,ND,14
2022/06/29,16:30,ND,ND,12
2022/06/29,16:40,ND,ND,14
2022/06/29,16:50,ND,ND,19
2022/06/29,17:00,ND,ND,19
2022/06/29,17:10,ND,ND,20
2022/06/29,17:20,ND,ND,21
2022/06/29,17:30,ND,ND,22
2022/06/29,17:40,ND,ND,22
2022/06/29,17:50,ND,ND,18
2022/06/29,18:00,ND,ND,16
2022/06/29,18:10,ND,ND,20
2022/06/29,18:20,ND,ND,22
2022/06/29,18:30,ND,ND,24
2022/06/29,18:40,0.048,ND,24
2022/06/29,18:50,0.060,ND,24
2022/06/29,19:00,0.054,ND,26
2022/06/29,19:10,0.048,ND,23
2022/06/29,19:20,0.050,ND,23
2022/06/29,19:30,0.051,ND,21
2022/06/29,19:40,ND,ND,21
2022/06/29,19:50,ND,ND,22
2022/06/29,20:00,0.060,ND,22
2022/06/29,20:10,ND,ND,22
2022/06/29,20:20,0.075,ND,27
2022/06/29,20:30,0.066,ND,28
2022/06/29,20:40,0.066,ND,26
2022/06/29,20:50,0.056,ND,25
2022/06/29,21:00,0.053,ND,28
2022/06/29,21:10,ND,ND,28
2022/06/29,21:20,ND,ND,24
2022/06/29,21:30,ND,ND,21
2022/06/29,21:40,ND,ND,20
2022/06/29,21:50,0.049,ND,20
2022/06/29,22:00,ND,ND,18
2022/06/29,22:10,ND,ND,20
2022/06/29,22:20,ND,ND,21
2022/06/29,22:30,ND,ND,23
2022/06/29,22:40,ND,ND,25
2022/06/29,22:50,ND,ND,25
2022/06/29,23:00,0.048,ND,24
2022/06/29,23:10,0.078,ND,21
2022/06/29,23:20,0.076,ND,21
2022/06/29,23:30,ND,ND,22
2022/06/29,23:40,ND,ND,21
2022/06/29,23:50,ND,ND,22
